Terminal Aerodrome Forecast
Issued by NWS

Current Version | Previous Version | Graphics & Text | Print | Product List | Glossary On
Versions: 1 2 3 4 5 6 7 8 9 10 11 12 13 14 15 16 17 18 19 20 21 22 23 24 25 26 27
000
FTUS41 KRNK 010520
TAFLWB
TAF
KLWB 010520Z 0106/0206 02004KT P6SM BKN070 OVC120
     FM011200 04005KT 5SM -SNPL SCT012 OVC025
     FM011600 03003KT 2SM -FZRAPL BR SCT004 OVC012
     FM012200 00000KT 1SM BR OVC004=

USA.gov is the U.S. government's official web portal to all federal, state and local government web resources and services.